NOAA 16 DEB, 41287

Orbit data source: Space-Track

NOAA 16 DEB, 41287 is space debris in SSO originally from a launch on Thu, 21 Sep 2000 UTC launched from the Air Force Western Test Range (AFWTR). Debris objects in space refer to the collection of defunct objects orbiting the Earth. Examples of debris include non-operational satellites, rocket bodies, and fragments generated from explosions, collisions, or faulty payload assembly.

Loading next visibility...
Identifier
41287, 2000-055GP
Orbit
SSO
Country
Flag of USUS
Related business
Manufacturer
Unknown
Mission
Spacecraft
Bus & Motor
Unknown
Mass
Unknown
Launch date (UTC)
2000-09-21 (25 years ago)
Launch vehicle
Unknown
Launch site
Air Force Western Test Range (AFWTR)
Object type
Payload
Rocket body
Debris
Shape & HBR
Unknown shape, 0.1 m
Radar Cross Section
Small (<0.1 m²)

Expand to show TLE details & history
Last TLE update: 6 hours ago

TLE from 6 hours ago
0 NOAA 16 DEB
1 41287U 00055GP  26037.05144492  .00009468  00000-0  38624-2 0  9991
2 41287  98.8677 109.3873 0031466 245.4211 114.3689 14.27302438520563
Epoch: 2026-02-06T01:14Z
TLE epoch observation values (Epoch: 2026-02-06T01:14:04.841Z)
Latitude
0.00001°
Longitude
-45.32774°
Altitude
813.062 km
Speed
7.442 km/s
True Right ascension
07h 17m 32s
True Declination
0° 00' 00"
Sunlit
Object was in full shadow at epoch
Visualization orbit readout
Latitude
Unknown
Longitude
Unknown
Altitude
Unknown
Speed
Unknown
Apparent Right ascension
Unknown
Apparent Declination
Unknown
Sunlit
N/A
Visualization observer readout
Local Sidereal Time
09:32:19
Azimuth
Unknown
Elevation
Unknown
Doppler factor
Unknown
Orbital elements
Apogee altitude
820.499 km
Perigee altitude
775.338 km
Semi-major axis
7,176.055 km
Eccentricity
0.00315
Inclination
98.8677°
RAAN
109.3873°
Arg. of periapsis
245.4211°
True anomaly
114.69682°
Mean anomaly
114.3689°
Eccentric anomaly
114.53291°
Mean motion
3.57038 °/min
Orbital period
100.83 mins
BSTAR
0.0038624
Loading maneuver chart data...
Computing Atmospheric mass density...
Loading historical data...
Loading historical data...
Loading historical data...
Loading historical data...
Loading historical data...
Loading historical data...
Loading historical data...

Documentation

Showing up to 5 results
|